Location: Elbart
(49.6135°N, 11.9134°E)
Time: 12:06:30
(UTC+00:00)

MONITOR-E - Pass Details

Date: 09 April 2020
Orbit: 308 x 313 km, 97.0° (Epoch: 27 May)

Event Time Altitude Azimuth Distance (km) Brightness Sun altitude
Rises 17:15:31 0° 103° (ESE) 2,067 7.1 5.8°
Enters shadow 18:14:52 -66° 168° (SSE) 12,004 11.5 -3.7°
Maximum altitude 18:48:15 80° 256° (WSW) 334 3.8 -8.7°
